When you browse on this site, cookies collect data to enhance your experience and personalize the content and advertising you see.
Visit our Privacy Policy to learn more. By continuing to use the site, you agree to this use of cookies and data.
  • In Hungary
  • List of Countries
  • For 7 days
  • Water Temperature
  • Weather Map
  • News
  • Weather Widgets
  • user-avatar
    Login

    Hourly Weather Nelyubino

    Today, 19 January, Sunday

    Time Temperature Precipitation Wind Pressure Humidity
    00:00 -22°C° 0 mm 3 mps 756 mmHg 83%
    01:00 -22°C° 0 mm 3 mps 754 mmHg 83%
    02:00 -23°C° 0 mm 4 mps 753 mmHg 83%
    03:00 -23°C° 0 mm 4 mps 752 mmHg 83%
    04:00 -23°C° 0 mm 4 mps 750 mmHg 85%
    05:00 -22°C° 0 mm 4 mps 749 mmHg 88%
    06:00 -20°C° 0 mm 4 mps 747 mmHg 92%
    07:00 -18°C° 0.2 mm 4 mps 746 mmHg 92%
    08:00 -16°C° 0.2 mm 4 mps 744 mmHg 93%
    09:00 -14°C° 0.2 mm 5 mps 743 mmHg 93%
    10:00 -13°C° 0.6 mm 5 mps 742 mmHg 93%
    11:00 -12°C° 0.6 mm 5 mps 741 mmHg 93%
    12:00 -11°C° 0 mm 5 mps 741 mmHg 93%
    13:00 -11°C° 0.3 mm 5 mps 741 mmHg 92%
    14:00 -12°C° 0.3 mm 5 mps 741 mmHg 90%
    15:00 -13°C° 0.3 mm 5 mps 741 mmHg 89%
    16:00 -14°C° 0.1 mm 4 mps 742 mmHg 89%
    17:00 -16°C° 0.1 mm 4 mps 743 mmHg 89%
    18:00 -17°C° 0 mm 4 mps 743 mmHg 90%
    19:00 -17°C° 0 mm 3 mps 744 mmHg 91%
    20:00 -18°C° 0 mm 3 mps 745 mmHg 93%
    21:00 -19°C° 0 mm 3 mps 746 mmHg 94%
    22:00 -19°C° 0 mm 3 mps 746 mmHg 94%
    23:00 -21°C° 0 mm 3 mps 747 mmHg 95%

    Tomorrow, 20 January, Monday

    Time Temperature Precipitation Wind Pressure Humidity
    00:00 -21°C° 0 mm 3 mps 748 mmHg 95%
    01:00 -22°C° 0 mm 3 mps 748 mmHg 95%
    02:00 -23°C° 0 mm 2 mps 749 mmHg 96%
    03:00 -24°C° 0 mm 2 mps 750 mmHg 97%
    04:00 -25°C° 0 mm 2 mps 751 mmHg 97%
    05:00 -26°C° 0 mm 2 mps 751 mmHg 97%
    06:00 -27°C° 0 mm 2 mps 752 mmHg 97%
    07:00 -27°C° 0 mm 2 mps 752 mmHg 97%
    08:00 -28°C° 0 mm 2 mps 752 mmHg 97%
    09:00 -31°C° 0 mm 3 mps 753 mmHg 96%
    10:00 -30°C° 0 mm 3 mps 753 mmHg 95%
    11:00 -27°C° 0 mm 3 mps 753 mmHg 93%
    12:00 -27°C° 0 mm 4 mps 753 mmHg 91%
    13:00 -26°C° 0 mm 4 mps 753 mmHg 90%
    14:00 -26°C° 0 mm 4 mps 753 mmHg 90%
    15:00 -25°C° 0 mm 4 mps 753 mmHg 90%
    16:00 -25°C° 0 mm 4 mps 754 mmHg 90%
    17:00 -25°C° 0 mm 4 mps 754 mmHg 91%
    18:00 -25°C° 0 mm 4 mps 754 mmHg 92%
    19:00 -26°C° 0 mm 4 mps 754 mmHg 92%
    20:00 -26°C° 0 mm 4 mps 754 mmHg 92%
    21:00 -27°C° 0 mm 4 mps 754 mmHg 92%
    22:00 -27°C° 0 mm 4 mps 754 mmHg 91%
    23:00 -29°C° 0 mm 4 mps 753 mmHg 90%

    Day after tomorrow, 21 January, Tuesday

    Time Temperature Precipitation Wind Pressure Humidity
    00:00 -29°C° 0 mm 5 mps 753 mmHg 89%
    01:00 -30°C° 0 mm 4 mps 753 mmHg 88%
    02:00 -30°C° 0 mm 4 mps 753 mmHg 87%
    03:00 -30°C° 0 mm 4 mps 752 mmHg 87%
    04:00 -31°C° 0 mm 4 mps 752 mmHg 87%
    05:00 -31°C° 0 mm 4 mps 752 mmHg 87%
    06:00 -31°C° 0 mm 4 mps 752 mmHg 87%
    07:00 -31°C° 0 mm 4 mps 752 mmHg 88%
    08:00 -32°C° 0 mm 4 mps 752 mmHg 89%
    09:00 -32°C° 0 mm 4 mps 751 mmHg 90%
    10:00 -30°C° 0 mm 3 mps 751 mmHg 89%
    11:00 -29°C° 0 mm 3 mps 751 mmHg 89%
    12:00 -27°C° 0 mm 3 mps 751 mmHg 88%
    13:00 -26°C° 0 mm 3 mps 751 mmHg 89%
    14:00 -25°C° 0 mm 3 mps 751 mmHg 89%
    15:00 -24°C° 0 mm 2 mps 751 mmHg 90%
    16:00 -25°C° 0 mm 2 mps 751 mmHg 91%
    17:00 -26°C° 0 mm 2 mps 751 mmHg 92%
    18:00 -27°C° 0 mm 2 mps 752 mmHg 93%
    19:00 -24°C° 0 mm 1 mps 752 mmHg 93%
    20:00 -24°C° 0 mm 1 mps 752 mmHg 93%
    21:00 -24°C° 0 mm 1 mps 752 mmHg 92%
    22:00 -24°C° 0 mm 1 mps 752 mmHg 92%
    23:00 -24°C° 0 mm 1 mps 752 mmHg 92%

    22 January, Wednesday

    Time Temperature Precipitation Wind Pressure Humidity
    00:00 -24°C° 0 mm 1 mps 753 mmHg 92%
    01:00 -24°C° 0 mm 1 mps 753 mmHg 91%
    02:00 -24°C° 0 mm 1 mps 753 mmHg 91%
    03:00 -24°C° 0 mm 1 mps 753 mmHg 90%
    04:00 -24°C° 0 mm 1 mps 753 mmHg 90%
    05:00 -24°C° 0 mm 1 mps 753 mmHg 89%
    06:00 -24°C° 0 mm 1 mps 753 mmHg 88%
    07:00 -24°C° 0 mm 1 mps 753 mmHg 87%
    08:00 -27°C° 0 mm 2 mps 753 mmHg 86%
    09:00 -26°C° 0 mm 2 mps 753 mmHg 85%
    10:00 -24°C° 0 mm 2 mps 752 mmHg 88%
    11:00 -21°C° 0 mm 2 mps 752 mmHg 90%
    12:00 -19°C° 0 mm 2 mps 751 mmHg 93%
    13:00 -19°C° 0 mm 3 mps 751 mmHg 93%
    14:00 -18°C° 0 mm 3 mps 750 mmHg 93%
    15:00 -17°C° 0 mm 3 mps 750 mmHg 94%
    16:00 -16°C° 0.1 mm 3 mps 749 mmHg 94%
    17:00 -15°C° 0.1 mm 3 mps 749 mmHg 94%
    18:00 -15°C° 0.1 mm 3 mps 749 mmHg 94%
    19:00 -14°C° 0.1 mm 3 mps 749 mmHg 94%
    20:00 -13°C° 0.1 mm 3 mps 748 mmHg 94%
    21:00 -12°C° 0.1 mm 3 mps 748 mmHg 94%
    22:00 -12°C° 0 mm 3 mps 748 mmHg 93%
    23:00 -12°C° 0 mm 3 mps 748 mmHg 92%

    23 January, Thursday

    Time Temperature Precipitation Wind Pressure Humidity
    00:00 -13°C° 0 mm 3 mps 748 mmHg 92%
    01:00 -13°C° 0.1 mm 3 mps 748 mmHg 92%
    02:00 -14°C° 0.1 mm 4 mps 748 mmHg 92%
    03:00 -14°C° 0.1 mm 4 mps 748 mmHg 93%
    04:00 -14°C° 0.1 mm 4 mps 748 mmHg 93%
    05:00 -14°C° 0.1 mm 4 mps 748 mmHg 92%
    06:00 -12°C° 0.1 mm 4 mps 748 mmHg 92%
    07:00 -12°C° 0 mm 4 mps 748 mmHg 91%
    08:00 -13°C° 0 mm 5 mps 748 mmHg 90%
    09:00 -13°C° 0 mm 5 mps 748 mmHg 90%
    10:00 -12°C° 0.1 mm 5 mps 747 mmHg 90%
    11:00 -12°C° 0.1 mm 5 mps 747 mmHg 91%
    12:00 -11°C° 0.1 mm 6 mps 747 mmHg 92%
    13:00 -10°C° 0.2 mm 5 mps 746 mmHg 91%
    14:00 -8°C° 0.2 mm 5 mps 746 mmHg 91%
    15:00 -8°C° 0.2 mm 5 mps 746 mmHg 91%
    16:00 -7°C° 0.1 mm 5 mps 745 mmHg 91%
    17:00 -7°C° 0.1 mm 5 mps 745 mmHg 92%
    18:00 -7°C° 0.1 mm 5 mps 745 mmHg 92%
    19:00 -7°C° 0.2 mm 5 mps 744 mmHg 92%
    20:00 -7°C° 0.2 mm 5 mps 744 mmHg 92%
    21:00 -6°C° 0.2 mm 6 mps 744 mmHg 92%
    22:00 -6°C° 0.2 mm 6 mps 743 mmHg 92%
    23:00 -6°C° 0.2 mm 6 mps 743 mmHg 91%

    24 January, Friday

    Time Temperature Precipitation Wind Pressure Humidity
    00:00 -5°C° 0.2 mm 6 mps 743 mmHg 91%
    01:00 -5°C° 0.2 mm 6 mps 743 mmHg 92%
    02:00 -5°C° 0.2 mm 6 mps 743 mmHg 92%
    03:00 -5°C° 0.2 mm 6 mps 742 mmHg 93%
    04:00 -5°C° 0.3 mm 6 mps 742 mmHg 93%
    05:00 -5°C° 0.3 mm 6 mps 742 mmHg 94%
    06:00 -5°C° 0.3 mm 6 mps 742 mmHg 94%
    07:00 -4°C° 0.2 mm 6 mps 742 mmHg 93%
    08:00 -4°C° 0.2 mm 5 mps 742 mmHg 91%
    09:00 -4°C° 0.2 mm 5 mps 742 mmHg 90%
    10:00 -4°C° 0.1 mm 5 mps 743 mmHg 91%
    11:00 -2°C° 0.1 mm 5 mps 743 mmHg 92%
    12:00 -3°C° 0.1 mm 6 mps 743 mmHg 92%
    13:00 -3°C° 0.1 mm 6 mps 743 mmHg 92%
    14:00 -3°C° 0.1 mm 6 mps 743 mmHg 92%
    15:00 -3°C° 0.1 mm 6 mps 743 mmHg 91%
    16:00 -3°C° 0 mm 6 mps 743 mmHg 91%
    17:00 -2°C° 0 mm 5 mps 743 mmHg 90%
    18:00 -4°C° 0 mm 5 mps 743 mmHg 89%
    19:00 -4°C° 0 mm 5 mps 743 mmHg 91%
    20:00 -4°C° 0 mm 5 mps 743 mmHg 92%
    21:00 -5°C° 0 mm 5 mps 743 mmHg 93%
    22:00 -4°C° 0.2 mm 4 mps 743 mmHg 94%
    23:00 -4°C° 0.2 mm 4 mps 743 mmHg 95%
    Show more